TITAN 3C TRANSTAGE DEB, 2799

Orbit data source: Space-Track

TITAN 3C TRANSTAGE DEB, 2799 is space debris in LEO originally from a launch on Fri, 15 Oct 1965 UTC launched from the Air Force Eastern Test Range (AFETR). Debris objects in space refer to the collection of defunct objects orbiting the Earth. Examples of debris include non-operational satellites, rocket bodies, and fragments generated from explosions, collisions, or faulty payload assembly.

Loading next visibility...
Identifier
2799, 1965-082KX
Orbit
LEO
Country
Flag of USUS
Related business
Manufacturer
Unknown
Mission
Spacecraft
Bus & Motor
Unknown
Mass
Unknown
Launch date (UTC)
1965-10-15 (60 years ago)
Launch vehicle
Unknown
Launch site
Air Force Eastern Test Range (AFETR)
Object type
Payload
Rocket body
Debris
Shape & HBR
Unknown shape, 0.1 m
Radar Cross Section
Small (<0.1 m²)

Expand to show TLE details & history
Last TLE update: 1 day ago

TLE from 1 day ago
0 TITAN 3C TRANSTAGE DEB
1 02799U 65082KX  25306.20945791  .00002079  00000-0  30568-3 0  9994
2 02799  32.0561 272.1474 0033470 347.3233  35.3597 14.73398193122640
Epoch: 2025-11-02T05:01Z
TLE epoch observation values (Epoch: 2025-11-02T05:01:37.163Z)
Latitude
11.9576°
Longitude
174.66878°
Altitude
628.962 km
Speed
7.558 km/s
True Right ascension
19h 27m 12s
True Declination
11° 53' 13"
Sunlit
Object was in daylight at epoch
Visualization orbit readout
Latitude
Unknown
Longitude
Unknown
Altitude
Unknown
Speed
Unknown
Apparent Right ascension
Unknown
Apparent Declination
Unknown
Sunlit
N/A
Visualization observer readout
Local Sidereal Time
11:32:46
Azimuth
Unknown
Elevation
Unknown
Doppler factor
Unknown
Orbital elements
Apogee altitude
677.401 km
Perigee altitude
630.329 km
Semi-major axis
7,032.002 km
Eccentricity
0.00335
Inclination
32.0561°
RAAN
272.1474°
Arg. of periapsis
347.3233°
True anomaly
35.58242°
Mean anomaly
35.3597°
Eccentric anomaly
35.47098°
Mean motion
3.68065 °/min
Orbital period
97.81 mins
BSTAR
0.00030568

Documentation

Showing up to 5 results
|